Regional Weather Roundup
Issued by NWS Raleigh/Durham, NC

Home | Current Version | Previous Version | Text Only | Print | Product List | Glossary On
Versions: 1 2 3 4 5 6 7 8 9 10 11 12 13 14 15 16 17 18 19 20 21 22 23 24 25 26 27
000
ASUS42 KRAH 011810
RWRRAH
NORTH CAROLINA WEATHER ROUNDUP
NATIONAL WEATHER SERVICE RALEIGH NC
200 PM EDT SAT OCT 01 2016

NOTE: "FAIR" INDICATES FEW OR NO CLOUDS BELOW 12,000 FEET WITH NO
SIGNIFICANT WEATHER AND/OR OBSTRUCTIONS TO VISIBILITY.

NCZ001-053-055-056-065-067-011900-
WESTERN NORTH CAROLINA

CITY           SKY/WX    TMP DP  RH WIND       PRES   REMARKS
ASHEVILLE      MOSUNNY   71  42  35 CALM      30.10F
JEFFERSON      SUNNY     65  49  56 SE5       30.12F
MORGANTON      SUNNY     73  51  45 CALM      30.12F
HICKORY        SUNNY     75  51  43 VRB5      30.07F
RUTHERFORDTON  SUNNY     74  49  40 SE6       30.08F
MOUNT AIRY     MOSUNNY   75  55  49 SW5       30.09F
BOONE          SUNNY     68  44  41 S7        30.12F
$$

NCZ021-022-025-041-071-084-088-011900-
CENTRAL NORTH CAROLINA

CITY           SKY/WX    TMP DP  RH WIND       PRES   REMARKS
CHARLOTTE      MOSUNNY   77  48  35 SW7       30.06F
GREENSBORO     MOSUNNY   77  55  46 W6        30.05F
WINSTON-SALEM  SUNNY     76  49  38 S6        30.07F
RALEIGH-DURHAM PTSUNNY   82  60  47 SW13G18   30.05F
FORT BRAGG     SUNNY     83  59  44 S8        30.03F
FAYETTEVILLE   SUNNY     84  58  40 S10       30.04F
BURLINGTON     SUNNY     79  54  41 S9        30.05F
LAURINBURG     SUNNY     83  61  47 S8        30.05F
$$

NCZ011-015-027-028-043-044-047-080-103-011900-
NORTHEASTERN NORTH CAROLINA

CITY           SKY/WX    TMP DP  RH WIND       PRES   REMARKS
ROCKY MT-WILSO PTSUNNY   82  60  47 SW8       30.05F
GREENVILLE     PTSUNNY   82  63  51 SW6       30.07F
WASHINGTON     CLOUDY    80  67  65 CALM      30.06F
ELIZABETH CITY CLOUDY    81  69  67 S7        30.06F
MANTEO         CLOUDY    81  71  71 SW14      30.08F
CAPE HATTERAS  CLOUDY    80  74  81 SW5       30.08F
$$

NCZ078-087-090-091-093-098-101-011900-
SOUTHEASTERN NORTH CAROLINA

CITY           SKY/WX    TMP DP  RH WIND       PRES   REMARKS
LUMBERTON      SUNNY     84  61  45 SW9       30.03F
GOLDSBORO      MOSUNNY   81  61  49 VRB6      30.03F
KINSTON        SUNNY     82  61  47 S6        30.06F
KENANSVILLE    CLOUDY    81  64  57 SW3       30.05F
NEW BERN       CLOUDY    80  72  76 S5        30.07F
CHERRY POINT   PTSUNNY   82  73  74 S7        30.07F
BEAUFORT       PTSUNNY   81  74  79 S12       30.07S
JACKSONVILLE   CLOUDY    80  72  76 E6        30.04F
WILMINGTON     CLOUDY    80  71  74 SE8       30.05F
$$





USA.gov is the U.S. government's official web portal to all federal, state and local government web resources and services.